User: anonymous   Login
Location: Kailua
(21.4020°N, 157.7390°W)
Time: 09:45:09
(UTC-10:00)
Language:

Cosmos 2221 Rocket - Orbit

View from above orbital plane
View from above orbital plane
View from above satellite
View from above satellite

Ground track
Ground track

The orbit data is extracted from the following two-line orbital elements,

1 22237U 92080B   18145.90216201 +.00000100 +00000-0 +10601-4 0  9998
2 22237 082.5103 158.9165 0020223 160.6375 275.1621 14.78355004373980
Epoch (UTC): 25 May 2018 21:39:06
Eccentricity: 0.0020223
inclination: 82.5103°
perigee height: 620 km
apogee height: 649 km
right ascension of ascending node: 158.9165°
argument of perigee: 160.6375°
revolutions per day: 14.78355004
mean anomaly at epoch: 275.1621°
orbit number at epoch: 37398

The dashed part of the orbit path shows where the satellite is in the earth's shadow,  

DLR